Location: New Frontier Mobile Home Park
(32.8448°N, 116.9675°W)
Time: 23:15:36
(UTC+00:00)

Cosmos 1538 Rocket - Pass Details

Date: 14 July 2020
Orbit: 753 x 791 km, 74.0° (Epoch: 05 August)

Event Time Altitude Azimuth Distance (km) Brightness Sun altitude
Rises 03:27:54 0° 189° (S) 3,269 7.0 -6.4°
Reaches altitude 10° 03:30:18 10° 187° (S) 2,341 6.3 -6.9°
Maximum altitude 03:35:35 70° 104° (ESE) 834 4.0 -7.8°
Drops below altitude 10° 03:40:52 10° 22° (NNE) 2,336 6.7 -8.7°
Sets 03:43:15 0° 20° (NNE) 3,261 7.4 -9.2°
